H1 CPF 2 NER 2023 10 13 9 286 01 glonass133 H2 1403201 9133 40001 2023 10 13 0 0 0 2023 10 16 23 45 0 900 1 1 0 0 0 1 H9 10 0 60230 0.00000 0 -4956609.917 -9312934.034 -23220628.078 10 0 60230 900.00000 0 -2679203.493 -11021515.527 -22846980.831 10 0 60230 1800.00000 0 -593683.827 -12849936.688 -22029624.816 10 0 60230 2700.00000 0 1256272.221 -14742488.672 -20784560.001 10 0 60230 3600.00000 0 2838289.872 -16637509.968 -19136071.676 10 0 60230 4500.00000 0 4132399.189 -18469875.354 -17116252.272 10 0 60230 5400.00000 0 5131612.068 -20173646.164 -14764373.849 10 0 60230 6300.00000 0 5841951.431 -21684771.556 -12126123.482 10 0 60230 7200.00000 0 6281933.345 -22943728.346 -9252716.310 10 0 60230 8100.00000 0 6481525.527 -23897989.524 -6199903.257 10 0 60230 9000.00000 0 6480627.429 -24504218.723 -3026892.411 10 0 60230 9900.00000 0 6327136.926 -24730099.187 204795.251 10 0 60230 10800.00000 0 6074685.796 -24555721.017 3432513.868 10 0 60230 11700.00000 0 5780139.889 -23974468.836 6593701.708 10 0 60230 12600.00000 0 5500969.624 -22993372.711 9627087.961 10 0 60230 13500.00000 0 5292601.764 -21632907.513 12473874.316 10 0 60230 14400.00000 0 5205864.106 -19926248.766 15078868.768 10 0 60230 15300.00000 0 5284630.783 -17918015.511 17391550.140 10 0 60230 16200.00000 0 5563767.467 -15662551.965 19367043.180 10 0 60230 17100.00000 0 6067463.259 -13221818.696 20966985.870 10 0 60230 18000.00000 0 6808019.975 -10662980.177 22160272.585 10 0 60230 18900.00000 0 7785150.596 -8055788.022 22923659.072 10 0 60230 19800.00000 0 8985817.540 -5469867.600 23242217.722 10 0 60230 20700.00000 0 10384619.055 -2972019.818 23109634.211 10 0 60230 21600.00000 0 11944709.281 -623649.276 22528339.455 10 0 60230 22500.00000 0 13619215.274 1521575.055 21509473.668 10 0 60230 23400.00000 0 15353093.434 3419729.842 20072682.336 10 0 60230 24300.00000 0 17085349.172 5038234.752 18245746.998 10 0 60230 25200.00000 0 18751528.089 6356970.760 16064056.813 10 0 60230 26100.00000 0 20286374.989 7368872.779 13569930.071 10 0 60230 27000.00000 0 21626549.473 8079971.883 10811797.863 10 0 60230 27900.00000 0 22713283.821 8508885.532 7843265.058 10 0 60230 28800.00000 0 23494870.704 8685777.564 4722066.623 10 0 60230 29700.00000 0 23928875.013 8650832.310 1508939.652 10 0 60230 30600.00000 0 23983975.400 8452308.086 -1733566.381 10 0 60230 31500.00000 0 23641356.608 8144253.438 -4942317.049 10 0 60230 32400.00000 0 22895592.760 7783984.088 -8054833.043 10 0 60230 33300.00000 0 21754983.428 7429428.935 -11010517.426 10 0 60230 34200.00000 0 20241327.738 7136458.978 -13751844.921 10 0 60230 35100.00000 0 18389145.804 6956313.777 -16225488.948 10 0 60230 36000.00000 0 16244380.291 6933235.577 -18383363.730 10 0 60230 36900.00000 0 13862633.004 7102412.138 -20183560.702 10 0 60230 37800.00000 0 11307010.901 7488315.839 -21591161.011 10 0 60230 38700.00000 0 8645672.093 8103509.428 -22578908.681 10 0 60230 39600.00000 0 5949174.751 8947968.804 -23127731.991 10 0 60230 40500.00000 0 3287739.531 10008951.133 -23227103.880 10 0 60230 41400.00000 0 728539.270 11261413.558 -22875235.353 10 0 60230 42300.00000 0 -1666871.880 12668964.605 -22079099.142 10 0 60230 43200.00000 0 -3844884.046 14185308.074 -20854284.037 10 0 60230 44100.00000 0 -5761816.675 15756118.807 -19224683.447 10 0 60230 45000.00000 0 -7385482.127 17321271.679 -17222024.690 10 0 60230 45900.00000 0 -8696264.681 18817330.606 -14885248.453 10 0 60230 46800.00000 0 -9687671.967 20180193.634 -12259750.496 10 0 60230 47700.00000 0 -10366337.814 21347783.601 -9396500.242 10 0 60230 48600.00000 0 -10751478.256 22262672.070 -6351053.178 10 0 60230 49500.00000 0 -10873825.152 22874526.971 -3182475.943 10 0 60230 50400.00000 0 -10774083.531 23142281.640 47795.286 10 0 60230 51300.00000 0 -10500978.518 23035934.577 3277141.225 10 0 60230 52200.00000 0 -10108974.766 22537904.578 6442968.038 10 0 60230 53100.00000 0 -9655764.817 21643884.317 9483914.815 10 0 60230 54000.00000 0 -9199632.390 20363156.413 12341036.912 10 0 60230 54900.00000 0 -8796801.675 18718358.212 14958942.618 10 0 60230 55800.00000 0 -8498884.225 16744704.463 17286861.512 10 0 60230 56700.00000 0 -8350530.846 14488699.411 19279624.339 10 0 60230 57600.00000 0 -8387387.341 12006390.972 20898535.919 10 0 60230 58500.00000 0 -8634440.270 9361238.492 22112124.638 10 0 60230 59400.00000 0 -9104822.728 6621681.526 22896754.359 10 0 60230 60300.00000 0 -9799131.036 3858509.376 23237087.112 10 0 60230 61200.00000 0 -10705282.141 1142139.443 23126387.508 10 0 60230 62100.00000 0 -11798918.997 -1460083.687 22566662.696 10 0 60230 63000.00000 0 -13044348.507 -3886457.211 21568634.497 10 0 60230 63900.00000 0 -14395974.225 -6083251.037 20151543.421 10 0 60230 64800.00000 0 -15800165.273 -8006704.208 18342787.291 10 0 60230 65700.00000 0 -17197484.294 -9624603.946 16177400.326 10 0 60230 66600.00000 0 -18525181.813 -10917381.528 13697381.686 10 0 60230 67500.00000 0 -19719852.615 -11878679.241 10950885.545 10 0 60230 68400.00000 0 -20720142.393 -12515364.735 7991287.717 10 0 60230 69300.00000 0 -21469390.111 -12846992.356 4876146.687 10 0 60230 70200.00000 0 -21918093.817 -12904734.517 1666079.350 10 0 60230 71100.00000 0 -22026094.651 -12729828.834 -1576426.182 10 0 60230 72000.00000 0 -21764385.472 -12371607.497 -4788236.658 10 0 60230 72900.00000 0 -21116466.445 -11885193.403 -7906813.649 10 0 60230 73800.00000 0 -20079189.103 -11328961.875 -10871441.980 10 0 60230 74700.00000 0 -18663052.371 -10761876.895 -13624421.384 10 0 60230 75600.00000 0 -16891937.434 -10240815.997 -16112197.107 10 0 60230 76500.00000 0 -14802292.320 -9817998.268 -18286406.636 10 0 60230 77400.00000 0 -12441800.440 -9538625.214 -20104821.709 10 0 60230 78300.00000 0 -9867589.164 -9438834.767 -21532167.232 10 0 60230 79200.00000 0 -7144053.640 -9544055.086 -22540801.556 10 0 60230 80100.00000 0 -4340387.086 -9867827.449 -23111245.520 10 0 60230 81000.00000 0 -1527920.602 -10411147.456 -23232550.880 10 0 60230 81900.00000 0 1222616.881 -11162351.729 -22902501.974 10 0 60230 82800.00000 0 3843805.018 -12097554.216 -22127647.688 10 0 60230 83700.00000 0 6274093.191 -13181613.213 -20923164.001 10 0 60230 84600.00000 0 8460111.136 -14369587.975 -19312550.485 10 0 60230 85500.00000 0 10358634.485 -15608623.478 -17327167.146 10 0 60231 0.00000 0 11938125.076 -16840183.961 -15005621.109 10 0 60231 900.00000 0 13179784.547 -18002542.228 -12393013.802 10 0 60231 1800.00000 0 14078077.158 -19033418.720 -9540066.387 10 0 60231 2700.00000 0 14640704.672 -19872662.052 -6502136.057 10 0 60231 3600.00000 0 14888033.860 -20464857.111 -3338145.065 10 0 60231 4500.00000 0 14852003.025 -20761752.076 -109441.839 10 0 60231 5400.00000 0 14574554.426 -20724402.566 3121383.805 10 0 60231 6300.00000 0 14105659.378 -20324942.901 6291708.705 10 0 60231 7200.00000 0 13501019.636 -19547910.022 9340084.418 10 0 60231 8100.00000 0 12819542.059 -18391064.203 12207422.298 10 0 60231 9000.00000 0 12120692.896 -16865671.603 14838132.948 10 0 60231 9900.00000 0 11461842.929 -14996236.015 17181198.401 10 0 60231 10800.00000 0 10895714.964 -12819690.007 19191156.753 10 0 60231 11700.00000 0 10468040.824 -10384077.956 20828980.669 10 0 60231 12600.00000 0 10215526.234 -7746784.487 22062833.203 10 0 60231 13500.00000 0 10164209.181 -4972380.562 22868686.664 10 0 60231 14400.00000 0 10328280.981 -2130175.213 23230792.741 10 0 60231 15300.00000 0 10709420.171 708426.793 23141994.722 10 0 60231 16200.00000 0 11296668.036 3472653.012 22603875.474 10 0 60231 17100.00000 0 12066852.117 6095064.979 21626737.701 10 0 60231 18000.00000 0 12985541.182 8514122.085 20229416.026 10 0 60231 18900.00000 0 14008492.829 10676501.746 18438923.477 10 0 60231 19800.00000 0 15083534.108 12539079.616 16289938.094 10 0 60231 20700.00000 0 16152796.970 14070487.417 13824138.507 10 0 60231 21600.00000 0 17155215.027 15252183.302 11089400.397 10 0 60231 22500.00000 0 18029176.583 16078989.919 8138868.753 10 0 60231 23400.00000 0 18715221.644 16559077.583 5029923.619 10 0 60231 24300.00000 0 19158668.321 16713393.473 1823059.541 10 0 60231 25200.00000 0 19312056.520 16574561.296 -1419299.032 10 0 60231 26100.00000 0 19137304.285 16185298.539 -4634022.420 10 0 60231 27000.00000 0 18607484.174 15596419.129 -7758515.506 10 0 60231 27900.00000 0 17708143.220 14864507.169 -10731947.247 10 0 60231 28800.00000 0 16438109.484 14049361.446 -13496444.662 10 0 60231 29700.00000 0 14809750.251 13211320.206 -15998226.939 10 0 60231 30600.00000 0 12848670.301 12408580.521 -18188656.783 10 0 60231 31500.00000 0 10592862.634 11694626.570 -20025188.014 10 0 60231 32400.00000 0 8091347.170 11115876.100 -21472190.931 10 0 60231 33300.00000 0 5402354.505 10709644.590 -22501639.716 10 0 60231 34200.00000 0 2591130.764 10502512.856 -23093649.120 10 0 60231 35100.00000 0 -272544.811 10509166.286 -23236850.893 10 0 60231 36000.00000 0 -3117026.277 10731753.825 -22928603.651 10 0 60231 36900.00000 0 -5871540.815 11159792.706 -22175033.079 10 0 60231 37800.00000 0 -8468888.744 11770621.985 -20990902.618 10 0 60231 38700.00000 0 -10847992.536 12530384.929 -19399317.862 10 0 60231 39600.00000 0 -12956190.125 13395498.229 -17431270.930 10 0 60231 40500.00000 0 -14751178.679 14314545.790 -15125033.945 10 0 60231 41400.00000 0 -16202529.627 15230517.221 -12525413.471 10 0 60231 42300.00000 0 -17292713.517 16083296.794 -9682880.311 10 0 60231 43200.00000 0 -18017593.721 16812298.302 -6652591.373 10 0 60231 44100.00000 0 -18386369.960 17359135.157 -3493322.298 10 0 60231 45000.00000 0 -18420975.496 17670213.571 -266331.338 10 0 60231 45900.00000 0 -18154954.482 17699139.913 2965823.774 10 0 60231 46800.00000 0 -17631867.523 17408841.040 6140493.301 10 0 60231 47700.00000 0 -16903293.102 16773308.320 9196144.167 10 0 60231 48600.00000 0 -16026509.201 15778891.816 12073546.695 10 0 60231 49500.00000 0 -15061952.698 14425089.713 14716916.819 10 0 60231 50400.00000 0 -14070563.231 12724799.086 17074992.012 10 0 60231 51300.00000 0 -13111122.888 10704016.442 19102020.603 10 0 60231 52200.00000 0 -12237703.130 8400999.203 20758645.800 10 0 60231 53100.00000 0 -11497325.861 5864921.572 22012667.774 10 0 60231 54000.00000 0 -10927936.533 3154079.166 22839669.401 10 0 60231 54900.00000 0 -10556774.300 333715.300 23223493.765 10 0 60231 55800.00000 0 -10399207.701 -2526442.341 23156564.135 10 0 60231 56700.00000 0 -10458085.176 -5354833.929 22640039.927 10 0 60231 57600.00000 0 -10723628.249 -8080799.862 21683805.057 10 0 60231 58500.00000 0 -11173872.774 -10637280.804 20306288.053 10 0 60231 59400.00000 0 -11775640.604 -12963373.984 18534116.414 10 0 60231 60300.00000 0 -12486001.824 -15006639.814 16401610.746 10 0 60231 61200.00000 0 -13254166.806 -16725062.857 13950127.398 10 0 60231 62100.00000 0 -14023728.958 -18088585.216 11227261.370 10 0 60231 63000.00000 0 -14735163.738 -19080148.055 8285924.254 10 0 60231 63900.00000 0 -15328478.265 -19696197.375 5183314.776 10 0 60231 64800.00000 0 -15745898.848 -19946632.729 1979802.009 10 0 60231 65700.00000 0 -15934481.797 -19854201.199 -1262256.556 10 0 60231 66600.00000 0 -15848535.699 -19453362.533 -4479738.234 10 0 60231 67500.00000 0 -15451751.193 -18788674.057 -7609994.706 10 0 60231 68400.00000 0 -14718946.629 -17912764.562 -10592082.565 10 0 60231 69300.00000 0 -13637354.385 -16883983.933 -13367959.540 10 0 60231 70200.00000 0 -12207392.340 -15763829.141 -15883622.042 10 0 60231 71100.00000 0 -10442887.004 -14614256.524 -18090161.012 10 0 60231 72000.00000 0 -8370738.311 -13494994.905 -19944715.005 10 0 60231 72900.00000 0 -6030039.758 -12460973.619 -21411301.899 10 0 60231 73800.00000 0 -3470690.625 -11559974.153 -22461513.340 10 0 60231 74700.00000 0 -751558.290 -10830604.238 -23075059.032 10 0 60231 75600.00000 0 2061732.664 -10300679.047 -23240151.172 10 0 60231 76500.00000 0 4899292.521 -9986076.701 -22953722.544 10 0 60231 77400.00000 0 7689636.218 -9890115.001 -22221475.027 10 0 60231 78300.00000 0 10362420.336 -10003474.307 -21057758.486 10 0 60231 79200.00000 0 12851134.306 -10304668.491 -19485283.127 10 0 60231 80100.00000 0 15095635.004 -10761043.021 -17534671.433 10 0 60231 81000.00000 0 17044420.555 -11330257.230 -15243858.681 10 0 60231 81900.00000 0 18656550.215 -11962187.721 -12657353.761 10 0 60231 82800.00000 0 19903131.825 -12601172.358 -9825374.618 10 0 60231 83700.00000 0 20768316.367 -13188500.153 -6802874.890 10 0 60231 84600.00000 0 21249759.607 -13665042.153 -3648480.396 10 0 60231 85500.00000 0 21358532.871 -13973912.577 -423355.845 10 0 60232 0.00000 0 21118487.896 -14063048.204 2809976.229 10 0 60232 900.00000 0 20565103.173 -13887597.426 5988843.442 10 0 60232 1800.00000 0 19743861.243 -13412018.255 9051630.933 10 0 60232 2700.00000 0 18708225.022 -12611796.926 11938970.854 10 0 60232 3600.00000 0 17517298.523 -11474714.208 14594886.960 10 0 60232 4500.00000 0 16233269.980 -10001605.571 16967874.246 10 0 60232 5400.00000 0 14918744.413 -8206582.320 19011892.926 10 0 60232 6300.00000 0 13634077.104 -6116703.050 20687257.988 10 0 60232 7200.00000 0 12434819.308 -3771107.613 21961407.539 10 0 60232 8100.00000 0 11369382.813 -1219647.953 22809535.458 10 0 60232 9000.00000 0 10477020.803 1478929.061 23215076.301 10 0 60232 9900.00000 0 9786209.444 4259173.037 23170033.051 10 0 60232 10800.00000 0 9313497.956 7051406.403 22675141.093 10 0 60232 11700.00000 0 9062875.608 9784384.372 21739864.687 10 0 60232 12600.00000 0 9025682.593 12388029.269 20382225.151 10 0 60232 13500.00000 0 9181069.098 14796126.482 18628463.110 10 0 60232 14400.00000 0 9496983.913 16948870.445 16512540.193 10 0 60232 15300.00000 0 9931651.579 18795154.749 14075488.737 10 0 60232 16200.00000 0 10435476.276 20294510.703 11364621.161 10 0 60232 17100.00000 0 10953292.307 21418613.047 8432613.582 10 0 60232 18000.00000 0 11426865.960 22152289.285 5336481.161 10 0 60232 18900.00000 0 11797542.373 22493989.981 2136465.128 10 0 60232 19800.00000 0 12008924.501 22455700.045 -1105146.475 10 0 60232 20700.00000 0 12009469.471 22062294.806 -4325240.475 10 0 60232 21600.00000 0 11754890.940 21350368.414 -7461117.841 10 0 60232 22500.00000 0 11210264.159 20366584.671 -10451725.180 10 0 60232 23400.00000 0 10351743.155 19165620.857 -13238853.165 10 0 60232 24300.00000 0 9167816.077 17807792.462 -15768277.452 10 0 60232 25200.00000 0 7660044.534 16356460.187 -17990819.037 10 0 60232 26100.00000 0 5843254.920 14875329.624 -19863302.831 10 0 60232 27000.00000 0 3745173.070 13425758.178 -21349395.725 10 0 60232 27900.00000 0 1405517.210 12064183.027 -22420308.092 10 0 60232 28800.00000 0 -1125412.993 10839778.284 -23055345.690 10 0 60232 29700.00000 0 -3788592.401 9792439.343 -23242302.055 10 0 60232 30600.00000 0 -6518494.121 8951178.105 -22977684.789 10 0 60232 31500.00000 0 -9245588.469 8332995.214 -22266772.309 10 0 60232 32400.00000 0 -11899013.612 7942275.094 -21123500.890 10 0 60232 33300.00000 0 -14409307.363 7770727.586 -19570184.943 10 0 60232 34200.00000 0 -16711087.332 7797877.050 -17637076.516 10 0 60232 35100.00000 0 -18745568.945 7992076.969 -15361772.871 10 0 60232 36000.00000 0 -20462817.735 8312006.200 -12788483.746 10 0 60232 36900.00000 0 -21823643.302 8708583.048 -9967172.487 10 0 60232 37800.00000 0 -22801057.310 9127215.941 -6952587.534 10 0 60232 38700.00000 0 -23381235.938 9510295.551 -3803202.783 10 0 60232 39600.00000 0 -23563947.738 9799823.154 -580087.162 10 0 60232 40500.00000 0 -23362430.066 9940064.402 2654274.945 10 0 60232 41400.00000 0 -22802720.113 9880116.619 5837189.852 10 0 60232 42300.00000 0 -21922469.217 9576281.383 8906964.137 10 0 60232 43200.00000 0 -20769290.540 8994142.288 11804094.530 10 0 60232 44100.00000 0 -19398709.525 8110260.067 14472415.411 10 0 60232 45000.00000 0 -17871802.962 6913413.202 16860182.098 10 0 60232 45900.00000 0 -16252625.284 5405331.025 18921069.393 10 0 60232 46800.00000 0 -14605529.397 3600887.359 20615066.578 10 0 60232 47700.00000 0 -12992493.651 1527745.080 21909251.954 10 0 60232 48600.00000 0 -11470566.164 -774535.288 22778432.315 10 0 60232 49500.00000 0 -10089532.793 -3255887.720 23205635.221 10 0 60232 50400.00000 0 -8889905.815 -5857577.531 23182444.481 10 0 60232 51300.00000 0 -7901317.108 -8514408.415 22709172.141 10 0 60232 52200.00000 0 -7141382.899 -11157209.663 21794863.049 10 0 60232 53100.00000 0 -6615087.700 -13715501.587 20457131.125 10 0 60232 54000.00000 0 -6314713.439 -16120229.380 18721829.497 10 0 60232 54900.00000 0 -6220317.082 -18306452.363 16622559.767 10 0 60232 55800.00000 0 -6300737.018 -20215876.775 14200028.820 10 0 60232 56700.00000 0 -6515086.073 -21799126.337 11501264.669 10 0 60232 57600.00000 0 -6814668.297 -23017655.310 8578705.820 10 0 60232 58500.00000 0 -7145238.375 -23845223.329 5489181.460 10 0 60232 59400.00000 0 -7449507.606 -24268869.576 2292802.323 10 0 60232 60300.00000 0 -7669789.541 -24289344.816 -948215.821 10 0 60232 61200.00000 0 -7750672.027 -23920982.838 -4170772.296 10 0 60232 62100.00000 0 -7641601.032 -23191016.695 -7312120.470 10 0 60232 63000.00000 0 -7299265.235 -22138368.895 -10311100.161 10 0 60232 63900.00000 0 -6689678.830 -20811967.217 -13109338.207 10 0 60232 64800.00000 0 -5789872.950 -19268658.042 -15652392.684 10 0 60232 65700.00000 0 -4589122.953 -17570806.157 -17890817.660 10 0 60232 66600.00000 0 -3089658.785 -15783683.149 -19781127.157 10 0 60232 67500.00000 0 -1306827.715 -13972755.096 -21286639.468 10 0 60232 68400.00000 0 731297.870 -12200984.117 -22378185.634 10 0 60232 69300.00000 0 2984851.492 -10526257.210 -23034668.885 10 0 60232 70200.00000 0 5403603.612 -8999049.916 -23243465.005 10 0 60232 71100.00000 0 7928833.036 -7660421.914 -23000656.811 10 0 60232 72000.00000 0 10495560.766 -6540427.303 -22311099.187 10 0 60232 72900.00000 0 13035053.470 -5657004.601 -21188314.327 10 0 60232 73800.00000 0 15477492.799 -5015391.158 -19654219.976 10 0 60232 74700.00000 0 17754699.959 -4608084.697 -17738696.499 10 0 60232 75600.00000 0 19802802.913 -4415351.794 -15479001.522 10 0 60232 76500.00000 0 21564736.071 -4406260.322 -12919043.625 10 0 60232 77400.00000 0 22992469.242 -4540191.134 -10108529.155 10 0 60232 78300.00000 0 24048873.999 -4768764.319 -7101998.567 10 0 60232 79200.00000 0 24709150.574 -5038098.191 -3957770.721 10 0 60232 80100.00000 0 24961756.652 -5291305.345 -736815.408 10 0 60232 81000.00000 0 24808800.087 -5471120.296 2498424.349 10 0 60232 81900.00000 0 24265879.845 -5522547.775 5685237.633 10 0 60232 82800.00000 0 23361382.331 -5395419.937 8761855.545 10 0 60232 83700.00000 0 22135262.890 -5046754.581 11668642.521 10 0 60232 84600.00000 0 20637363.565 -4442814.792 14349246.382 10 0 60232 85500.00000 0 18925337.417 -3560782.892 16751685.192 10 0 60233 0.00000 0 17062266.049 -2389977.736 18829350.204 10 0 60233 900.00000 0 15114068.427 -932562.555 20541906.989 10 0 60233 1800.00000 0 13146811.162 796286.023 21856075.059 10 0 60233 2700.00000 0 11224028.534 2768758.541 22746274.957 10 0 60233 3600.00000 0 9404165.865 4945327.344 23195127.689 10 0 60233 4500.00000 0 7738251.333 7276159.640 23193797.961 10 0 60233 5400.00000 0 6267892.975 9702972.027 22742174.159 10 0 60233 6300.00000 0 5023684.129 12161251.138 21848881.038 10 0 60233 7200.00000 0 4024083.713 14582749.571 20531124.084 10 0 60233 8100.00000 0 3274818.104 16898154.486 18814367.571 10 0 60233 9000.00000 0 2768829.711 19039818.580 16731851.429 10 0 60233 9900.00000 0 2486774.511 20944439.933 14323955.189 10 0 60233 10800.00000 0 2398047.700 22555578.836 11637420.347 10 0 60233 11700.00000 0 2462294.184 23825905.941 8724445.482 10 0 60233 12600.00000 0 2631339.985 24719086.884 5641671.332 10 0 60233 13500.00000 0 2851462.377 25211223.525 2449075.522 10 0 60233 14400.00000 0 3065901.909 25291790.425 -791201.156 10 0 60233 15300.00000 0 3217508.806 24964026.530 -4016073.260 10 0 60233 16200.00000 0 3251410.261 24244765.148 -7162749.248 10 0 60233 17100.00000 0 3117584.050 23163709.324 -10169964.727 10 0 60233 18000.00000 0 2773227.881 21762183.399 -12979185.085 10 0 60233 18900.00000 0 2184822.658 20091413.941 -15535752.983 10 0 60233 19800.00000 0 1329801.035 18210413.191 -17789957.483 10 0 60233 20700.00000 0 197749.709 16183554.967 -19698003.393 10 0 60233 21600.00000 0 -1208906.124 14077945.706 -21222861.846 10 0 60233 22500.00000 0 -2874765.513 11960701.583 -22334985.766 10 0 60233 23400.00000 0 -4771867.833 9896246.187 -23012876.846 10 0 60233 24300.00000 0 -6860644.943 7943741.736 -23243493.850 10 0 60233 25200.00000 0 -9091369.683 6154760.690 -23022495.263 10 0 60233 26100.00000 0 -11406040.270 4571294.070 -22354312.555 10 0 60233 27000.00000 0 -13740622.081 3224178.222 -21252053.585 10 0 60233 27900.00000 0 -16027553.630 2132004.013 -19737238.783 10 0 60233 28800.00000 0 -18198412.667 1300552.111 -17839375.799 10 0 60233 29700.00000 0 -20186631.808 722775.962 -15595381.247 10 0 60233 30600.00000 0 -21930151.217 379331.233 -13048860.875 10 0 60233 31500.00000 0 -23373898.410 239627.797 -10249262.129 10 0 60233 32400.00000 0 -24471992.553 263358.592 -7250915.406 10 0 60233 33300.00000 0 -25189581.976 402439.922 -4111982.322 10 0 60233 34200.00000 0 -25504238.876 603280.699 -893331.193 10 0 60233 35100.00000 0 -25406853.555 809284.455 2342638.750 10 0 60233 36000.00000 0 -24901991.290 963478.361 5533201.923 10 0 60233 36900.00000 0 -24007697.263 1011158.208 8616516.600 10 0 60233 37800.00000 0 -22754757.901 902437.736 11532817.647 10 0 60233 38700.00000 0 -21185449.469 594594.728 14225569.065 10 0 60233 39600.00000 0 -19351826.025 54114.794 16642554.352 10 0 60233 40500.00000 0 -17313617.861 -741653.611 18736884.085 10 0 60233 41400.00000 0 -15135827.546 -1803303.244 20467901.672 10 0 60233 42300.00000 0 -12886123.173 -3128682.427 21801970.217 10 0 60233 43200.00000 0 -10632136.673 -4702749.818 22713125.611 10 0 60233 44100.00000 0 -8438778.895 -6497977.327 23183583.491 10 0 60233 45000.00000 0 -6365682.518 -8475286.173 23204090.219 10 0 60233 45900.00000 0 -4464878.581 -10585478.986 22774110.873 10 0 60233 46800.00000 0 -2778802.823 -12771110.119 21901850.072 10 0 60233 47700.00000 0 -1338714.597 -14968717.936 20604104.453 10 0 60233 48600.00000 0 -163594.036 -17111327.433 18905948.669 10 0 60233 49500.00000 0 740436.554 -19131119.871 16840259.874 10 0 60233 50400.00000 0 1380142.883 -20962158.502 14447088.810 10 0 60233 51300.00000 0 1774659.300 -22543056.601 11772888.709 10 0 60233 52200.00000 0 1954441.782 -23819475.807 8869616.199 10 0 60233 53100.00000 0 1959737.733 -24746349.332 5793721.290 10 0 60233 54000.00000 0 1838637.689 -25289735.815 2605046.023 10 0 60233 54900.00000 0 1644792.091 -25428224.871 -634346.426 10 0 60233 55800.00000 0 1434890.806 -25153834.216 -3861388.615 10 0 60233 56700.00000 0 1266013.481 -24472359.806 -7013246.954 10 0 60233 57600.00000 0 1192964.471 -23403163.748 -10028555.764 10 0 60233 58500.00000 0 1265706.803 -21978408.762 -12848621.931 10 0 60233 59400.00000 0 1527005.370 -20241771.640 -15418575.608 10 0 60233 60300.00000 0 2010380.464 -18246690.280 -17688443.624 10 0 60233 61200.00000 0 2738459.263 -16054218.689 -19614124.126 10 0 60233 62100.00000 0 3721795.744 -13730580.700 -21158243.330 10 0 60233 63000.00000 0 4958209.342 -11344525.555 -22290877.874 10 0 60233 63900.00000 0 6432670.508 -8964596.499 -22990129.298 10 0 60233 64800.00000 0 8117738.107 -6656426.567 -23242540.258 10 0 60233 65700.00000 0 9974530.380 -4480174.133 -23043345.348 10 0 60233 66600.00000 0 11954188.762 -2488204.390 -22396552.640 10 0 60233 67500.00000 0 13999773.367 -723112.213 -21314855.283 10 0 60233 68400.00000 0 16048511.070 783832.826 -19819375.657 10 0 60233 69300.00000 0 18034302.468 2013756.251 -17939247.623 10 0 60233 70200.00000 0 19890383.456 2960720.736 -15711045.360 10 0 60233 71100.00000 0 21552030.740 3631719.804 -13178070.007 10 0 60233 72000.00000 0 22959198.826 4046125.443 -10389507.969 10 0 60233 72900.00000 0 24058978.956 4234614.549 -7399477.083 10 0 60233 73800.00000 0 24807777.785 4237620.778 -4265978.903 10 0 60233 74700.00000 0 25173125.249 4103378.038 -1049777.211 10 0 60233 75600.00000 0 25135036.461 3885638.818 2186775.779 10 0 60233 76500.00000 0 24686870.988 3641164.006 5380943.071 10 0 60233 77400.00000 0 23835653.729 3427090.291 8470813.301 10 0 60233 78300.00000 0 22601843.970 3298286.271 11396494.792 10 0 60233 79200.00000 0 21018562.084 3304808.797 14101270.501 10 0 60233 80100.00000 0 19130305.797 3489566.795 16532691.848 10 0 60233 81000.00000 0 16991209.078 3886291.183 18643590.726 10 0 60233 81900.00000 0 14662915.513 4517896.679 20392990.595 10 0 60233 82800.00000 0 12212153.981 5395305.051 21746899.436 10 0 60233 83700.00000 0 9708116.585 6516780.190 22678969.636 10 0 60233 84600.00000 0 7219746.998 7867804.221 23171012.239 10 0 60233 85500.00000 0 4813051.047 9421501.414 23213355.663 99